Gallatin Field Bozeman US
ICAO: KBZN
IATA: BZN
Category: Medium
Scheduled Services: Yes

Elevation: 4473 ft
TransAlt. 18000 ft.

Airport Communications:
ATIS:135.425
SALT LAKE CITY CNTR:132.4
CTAF:118.2
GND:121.8
GREAT FALLS RDO:122.5
BOZEMAN TWR:118.2
UNICOM:122.95

KBZN Zoom In..

If you have problems with the map follow the link
https://www.worldairports.se/pages/airport.php?
ICAO=KBZN

Runways:

(A) RW 03 length 2650 ft width 75 ft
---- / hdg 33

(B) RW 11 length 3197 ft width 80 ft
---- / hdg 122

(C) RW 12 length 8994 ft width 150 ft
ILS 109.30 / hdg 123

(D) RW 21 length 2650 ft width 75 ft
---- / hdg 213

(E) RW 29 length 3197 ft width 80 ft
---- / hdg 302

(F) RW 30 length 8994 ft width 150 ft
---- / hdg 303

Location; KBZN
Day. 25 / Time. 06.56 Zulu
* Altimeter: 30.00
* Temperature: -03° c. -26.6°f.
* Wind from: 310° Speed 04 kn.
Dewpoint: -04° c.
Visibility: 7 Statute Miles.
Clouds: Clear (automated report).

KBZN 250656Z 31004KT 7SM CLR M03/M04 A3000 RMK AO2 SLP186 T10281039 400561050


Wind From 310°
Speed 04 kn.

 
 
jpsmedia worldairports.se 2020   terms of use